Regional Weather Roundup
Issued by NWS

Home | Current Version | Previous Version | Text Only | Print | Product List | Glossary Off
Versions: 1 2 3 4 5 6 7 8 9 10 11 12 13 14 15 16 17 18 19 20 21 22 23 24 25 26 27 28 29 30 31 32 33 34 35 36 37 38 39 40 41 42 43 44 45 46 47 48 49 50

000
ASUS45 KBOI 251610
RWRID

IDAHO REGIONAL WEATHER ROUNDUP
NATIONAL WEATHER SERVICE BOISE ID
1000 AM MDT MON MAY 25 2015

NOTE: "FAIR" INDICATES FEW OR NO CLOUDS BELOW 12000 FEET
WITH NO SIGNIFICANT WEATHER AND/OR OBSTRUCTIONS TO VISIBILITY

IDZ012-014-251700-
SOUTHWEST IDAHO


CITY           SKY/WX    TMP DP  RH WIND       PRES   REMARKS
BOISE          SUNNY     65  46  50 CALM      29.90S
CALDWELL       MOSUNNY   64  45  48 NW7       29.91R
MOUNTAIN HOME  MOSUNNY   64  47  54 E9        29.91S
$$

IDZ016-017-251700-
SOUTHCENTRAL IDAHO


CITY           SKY/WX    TMP DP  RH WIND       PRES   REMARKS
BURLEY         MOSUNNY   62  50  64 VRB3      29.94S
JEROME         SUNNY     58  47  66 VRB3      29.95R
TWIN FALLS     SUNNY     64  47  53 SW6       29.92S
$$

IDZ019>023-251700-
SOUTHEAST IDAHO


CITY           SKY/WX    TMP DP  RH WIND       PRES   REMARKS
IDAHO FALLS    MOSUNNY   56  47  71 SW8       29.96S
POCATELLO      PTSUNNY   56  49  77 W8        29.97S
REXBURG        MOSUNNY   55  48  77 SW9       29.96S
$$

IDZ006-010-011-018-031-032-251700-
CENTRAL IDAHO MOUNTAINS


CITY           SKY/WX    TMP DP  RH WIND       PRES   REMARKS
MCCALL         MOSUNNY   53  43  68 S3        29.94S
HAILEY         MOSUNNY   55  43  62 CALM      29.99S
STANLEY          N/A     43  38  82 N5        30.02S
SALMON         CLOUDY    52  41  66 CALM      29.95F
CHALLIS        MOSUNNY   54  39  57 CALM      29.96F
$$

IDZ002-004-006-007-026-251700-
NORTHERN IDAHO


CITY           SKY/WX    TMP DP  RH WIND       PRES   REMARKS
LEWISTON       CLOUDY    63  50  62 VRB3      29.89R
LOWELL           N/A     58  49  72 CALM      29.90F
COEUR D`ALENE  CLOUDY    55  52  88 N10       29.90R
MULLAN PASS    CLOUDY    47  43  86 CALM      29.96R
$$



USA.gov is the U.S. government's official web portal to all federal, state and local government web resources and services.